Torna al catalogo

FENGYUN 1C DEB

AttivoPO
NORAD 30884·DEBRIS·🇨🇳 China

Lanciato May 10, 1999 da Taiyuan Satellite Launch Center

Loading…

Prossimi Passaggi (prossime 24 ore)

TLE

AggiornatoSource: Space-Track

Epoca: Sep 14, 2026, 00:33 UTC

1 30884U 99025AXW 26257.02333537  .00006003  00000-0  79543-3 0  9996
2 30884  98.8863 283.5787 0060190 189.0536 170.9593 14.79052211 26975

Traccia FENGYUN 1C DEB in tempo reale con AllMySat

Download on the App Store